| time (UTC) | temp C | wind direction | speed KPH | gust KPH | rain 1hr cm | rain 24hr cm | rain mn cm | humidity % | barometer mb |
| 20260505224040 | 23 | 233 | 12.9 | 25.7 | 0.00 | 0.13 | 0.13 | 24 | 882.7 |
| 20260505223532 | 23 | 252 | 12.9 | 25.7 | 0.00 | 0.13 | 0.13 | 26 | 882.7 |
| 20260505223026 | 23 | 234 | 12.9 | 33.8 | 0.00 | 0.13 | 0.13 | 26 | 882.7 |
| 20260505222522 | 23 | 252 | 12.9 | 33.8 | 0.00 | 0.13 | 0.13 | 26 | 882.7 |
| 20260505222015 | 23 | 221 | 14.5 | 35.4 | 0.00 | 0.13 | 0.13 | 26 | 882.7 |
| 20260505221509 | 23 | 238 | 16.1 | 35.4 | 0.00 | 0.13 | 0.13 | 26 | 882.8 |
| 20260505221003 | 23 | 257 | 17.7 | 40.2 | 0.00 | 0.13 | 0.13 | 26 | 882.8 |
| 20260505220457 | 23 | 307 | 16.1 | 40.2 | 0.00 | 0.13 | 0.13 | 27 | 882.9 |
| 20260505215448 | 23 | 231 | 14.5 | 38.6 | 0.00 | 0.13 | 0.13 | 26 | 882.9 |
| 20260505214946 | 24 | 257 | 14.5 | 33.8 | 0.00 | 0.13 | 0.13 | 26 | 883.0 |
| 20260505214445 | 24 | 261 | 17.7 | 33.8 | 0.00 | 0.13 | 0.13 | 26 | 883.0 |
| 20260505212946 | 23 | 254 | 19.3 | 37.0 | 0.00 | 0.13 | 0.13 | 24 | 883.2 |
| 20260505212445 | 23 | 222 | 19.3 | 35.4 | 0.00 | 0.13 | 0.13 | 25 | 883.3 |
| 20260505211944 | 24 | 234 | 16.1 | 35.4 | 0.00 | 0.13 | 0.13 | 24 | 883.2 |
| 20260505211443 | 24 | 254 | 14.5 | 32.2 | 0.00 | 0.13 | 0.13 | 26 | 883.2 |
| 20260505210942 | 24 | 237 | 12.9 | 37.0 | 0.00 | 0.13 | 0.13 | 24 | 883.3 |
| 20260505210443 | 24 | 303 | 11.3 | 37.0 | 0.00 | 0.13 | 0.13 | 30 | 883.3 |
| 20260505205942 | 24 | 223 | 12.9 | 38.6 | 0.00 | 0.13 | 0.13 | 27 | 883.3 |
| 20260505205443 | 23 | 329 | 14.5 | 38.6 | 0.00 | 0.13 | 0.13 | 26 | 883.4 |
| 20260505204941 | 24 | 231 | 14.5 | 33.8 | 0.00 | 0.13 | 0.13 | 27 | 883.3 |
| 20260505204440 | 23 | 277 | 14.5 | 33.8 | 0.00 | 0.13 | 0.13 | 30 | 883.3 |
| 20260505203940 | 24 | 228 | 14.5 | 40.2 | 0.00 | 0.13 | 0.13 | 28 | 883.4 |
| 20260505201927 | 23 | 220 | 11.3 | 22.5 | 0.00 | 0.13 | 0.13 | 31 | 883.4 |
| 20260505201428 | 24 | 215 | 9.7 | 25.7 | 0.00 | 0.13 | 0.13 | 30 | 883.4 |
| 20260505200928 | 24 | 250 | 11.3 | 25.7 | 0.00 | 0.13 | 0.13 | 32 | 883.5 |
| 20260505200429 | 23 | 240 | 11.3 | 25.7 | 0.00 | 0.13 | 0.13 | 30 | 883.5 |
| 20260505195430 | 23 | 267 | 11.3 | 25.7 | 0.00 | 0.13 | 0.13 | 32 | 883.5 |
| 20260505194929 | 23 | 240 | 11.3 | 29.0 | 0.00 | 0.13 | 0.13 | 32 | 883.6 |
| 20260505194428 | 23 | 158 | 12.9 | 29.0 | 0.00 | 0.13 | 0.13 | 32 | 883.7 |
| 20260505193927 | 23 | 219 | 14.5 | 33.8 | 0.00 | 0.13 | 0.13 | 34 | 883.8 |
| 20260505192927 | 23 | 232 | 12.9 | 24.1 | 0.00 | 0.13 | 0.13 | 34 | 884.0 |
| 20260505192424 | 23 | 204 | 12.9 | 24.1 | 0.00 | 0.13 | 0.13 | 33 | 884.0 |
| 20260505191924 | 23 | 194 | 12.9 | 27.4 | 0.00 | 0.13 | 0.13 | 35 | 884.1 |
| 20260505190923 | 22 | 202 | 17.7 | 32.2 | 0.00 | 0.13 | 0.13 | 36 | 884.3 |
| 20260505190426 | 22 | 214 | 12.9 | 32.2 | 0.00 | 0.13 | 0.13 | 36 | 884.1 |
| 20260505185924 | 22 | 270 | 11.3 | 27.4 | 0.00 | 0.13 | 0.13 | 39 | 884.3 |
| 20260505185425 | 22 | 232 | 12.9 | 27.4 | 0.00 | 0.13 | 0.13 | 35 | 884.3 |
| 20260505183920 | 22 | 272 | 11.3 | 25.7 | 0.00 | 0.13 | 0.13 | 39 | 884.6 |
| 20260505183420 | 22 | 218 | 11.3 | 25.7 | 0.00 | 0.13 | 0.13 | 40 | 884.7 |
| 20260505182921 | 22 | 184 | 14.5 | 25.7 | 0.00 | 0.13 | 0.13 | 42 | 884.6 |
| 20260505182421 | 22 | 226 | 12.9 | 32.2 | 0.00 | 0.13 | 0.13 | 42 | 884.7 |
| 20260505181918 | 21 | 246 | 11.3 | 32.2 | 0.00 | 0.13 | 0.13 | 43 | 884.6 |
| 20260505181418 | 21 | 248 | 11.3 | 22.5 | 0.00 | 0.13 | 0.13 | 45 | 884.7 |
| 20260505180919 | 20 | 216 | 8.0 | 22.5 | 0.00 | 0.13 | 0.13 | 47 | 884.9 |
| 20260505180418 | 20 | 196 | 3.2 | 8.0 | 0.00 | 0.13 | 0.13 | 57 | 884.9 |
| 20260505175917 | 19 | 132 | 3.2 | 8.0 | 0.00 | 0.13 | 0.13 | 57 | 884.8 |
| 20260505175418 | 18 | 84 | 3.2 | 8.0 | 0.00 | 0.13 | 0.13 | 60 | 884.9 |
| 20260505174410 | 18 | 81 | 1.6 | 8.0 | 0.00 | 0.13 | 0.13 | 64 | 884.9 |
| 20260505173404 | 17 | 89 | 3.2 | 6.4 | 0.00 | 0.13 | 0.13 | 68 | 885.1 |
| 20260505172905 | 17 | 91 | 1.6 | 6.4 | 0.00 | 0.13 | 0.13 | 67 | 885.2 |
| 20260505172405 | 17 | 102 | 1.6 | 4.8 | 0.00 | 0.13 | 0.13 | 68 | 885.3 |
| 20260505171903 | 17 | 344 | 1.6 | 4.8 | 0.00 | 0.13 | 0.13 | 69 | 885.3 |
| 20260505170904 | 16 | 68 | 1.6 | 8.0 | 0.00 | 0.13 | 0.13 | 70 | 885.3 |
| 20260505170403 | 16 | 62 | 1.6 | 8.0 | 0.00 | 0.13 | 0.13 | 71 | 885.2 |
| 20260505165900 | 16 | 52 | 1.6 | 6.4 | 0.00 | 0.13 | 0.13 | 72 | 885.2 |
| 20260505164901 | 16 | 132 | 1.6 | 3.2 | 0.00 | 0.13 | 0.13 | 74 | 885.3 |
| 20260505163857 | 16 | 87 | 0.0 | 4.8 | 0.00 | 0.13 | 0.13 | 75 | 885.3 |
| 20260505163400 | 16 | 280 | 0.0 | 0.0 | 0.00 | 0.13 | 0.13 | 76 | 885.3 |
| 20260505162855 | 16 | 13 | 0.0 | 0.0 | 0.00 | 0.13 | 0.13 | 77 | 885.4 |
| 20260505162355 | 15 | 53 | 0.0 | 0.0 | 0.00 | 0.13 | 0.13 | 77 | 885.5 |
| 20260505161855 | 15 | 359 | 0.0 | 0.0 | 0.00 | 0.13 | 0.13 | 80 | 885.4 |
| 20260505161349 | 15 | 359 | 0.0 | 0.0 | 0.00 | 0.13 | 0.13 | 80 | 885.5 |
| 20260505160843 | 15 | 359 | 0.0 | 0.0 | 0.00 | 0.13 | 0.13 | 81 | 885.5 |
| 20260505160342 | 15 | 359 | 0.0 | 0.0 | 0.00 | 0.13 | 0.13 | 81 | 885.5 |
| 20260505153256 | 14 | 359 | 1.6 | 4.8 | 0.00 | 0.13 | 0.13 | 83 | 885.3 |
| 20260505152751 | 14 | 346 | 1.6 | 3.2 | 0.00 | 0.13 | 0.13 | 84 | 885.3 |
| 20260505152245 | 14 | 54 | 1.6 | 3.2 | 0.00 | 0.13 | 0.13 | 85 | 885.1 |
| 20260505151739 | 14 | 6 | 0.0 | 3.2 | 0.00 | 0.13 | 0.13 | 85 | 885.3 |
| 20260505151232 | 13 | 6 | 1.6 | 3.2 | 0.00 | 0.13 | 0.13 | 86 | 885.2 |
| 20260505150726 | 13 | 7 | 1.6 | 4.8 | 0.00 | 0.13 | 0.13 | 86 | 885.3 |
| 20260505150221 | 13 | 335 | 1.6 | 4.8 | 0.00 | 0.13 | 0.13 | 87 | 885.3 |
| 20260505140614 | 13 | 307 | 1.6 | 6.4 | 0.00 | 0.13 | 0.13 | 88 | 884.9 |
| 20260505140108 | 13 | 338 | 0.0 | 6.4 | 0.00 | 0.13 | 0.13 | 88 | 884.8 |
| 20260505124548 | 13 | 148 | 3.2 | 9.7 | 0.00 | 0.10 | 0.10 | 85 | 884.4 |
| 20260505124048 | 13 | 106 | 3.2 | 9.7 | 0.00 | 0.10 | 0.10 | 84 | 884.5 |
| 20260505123550 | 13 | 169 | 3.2 | 9.7 | 0.00 | 0.10 | 0.10 | 84 | 884.4 |
| 20260505123047 | 13 | 168 | 3.2 | 9.7 | 0.00 | 0.10 | 0.10 | 83 | 884.3 |
| 20260505121542 | 13 | 146 | 4.8 | 11.3 | 0.00 | 0.10 | 0.10 | 82 | 883.9 |
| 20260505120544 | 13 | 180 | 3.2 | 6.4 | 0.00 | 0.10 | 0.10 | 84 | 883.7 |
| 20260505120046 | 13 | 163 | 3.2 | 11.3 | 0.00 | 0.10 | 0.10 | 84 | 883.8 |
| 20260505115544 | 13 | 119 | 4.8 | 11.3 | 0.03 | 0.10 | 0.10 | 84 | 883.7 |
| 20260505114546 | 12 | 129 | 3.2 | 9.7 | 0.03 | 0.10 | 0.10 | 87 | 884.1 |
| 20260505114040 | 12 | 124 | 3.2 | 8.0 | 0.03 | 0.10 | 0.10 | 88 | 884.4 |
| 20260505113540 | 12 | 133 | 1.6 | 6.4 | 0.03 | 0.10 | 0.10 | 90 | 884.5 |
| 20260505113040 | 12 | 135 | 0.0 | 6.4 | 0.03 | 0.10 | 0.10 | 91 | 884.6 |
| 20260505112538 | 12 | 6 | 0.0 | 1.6 | 0.03 | 0.10 | 0.10 | 91 | 884.6 |
| 20260505112041 | 12 | 6 | 0.0 | 3.2 | 0.05 | 0.10 | 0.10 | 91 | 884.5 |
| 20260505111539 | 12 | 6 | 0.0 | 3.2 | 0.05 | 0.10 | 0.10 | 91 | 884.6 |
| 20260505111039 | 12 | 6 | 0.0 | 4.8 | 0.05 | 0.10 | 0.10 | 92 | 884.6 |
| 20260505110540 | 13 | 18 | 1.6 | 4.8 | 0.05 | 0.10 | 0.10 | 91 | 884.6 |
| 20260505102034 | 13 | 87 | 1.6 | 6.4 | 0.05 | 0.05 | 0.05 | 90 | 885.4 |
| 20260505101029 | 13 | 259 | 0.0 | 3.2 | 0.05 | 0.05 | 0.05 | 90 | 885.4 |
| 20260505100528 | 13 | 259 | 0.0 | 3.2 | 0.05 | 0.05 | 0.05 | 89 | 885.6 |
| 20260505095523 | 13 | 248 | 1.6 | 9.7 | 0.05 | 0.05 | 0.05 | 89 | 886.0 |
| 20260505095022 | 13 | 297 | 1.6 | 9.7 | 0.03 | 0.03 | 0.03 | 89 | 885.9 |
| 20260505094522 | 13 | 243 | 0.0 | 4.8 | 0.03 | 0.03 | 0.03 | 88 | 886.1 |
| 20260505094021 | 13 | 248 | 0.0 | 6.4 | 0.03 | 0.03 | 0.03 | 88 | 886.3 |
| 20260505093016 | 13 | 253 | 1.6 | 6.4 | 0.03 | 0.03 | 0.03 | 87 | 886.4 |
| 20260505092514 | 13 | 255 | 1.6 | 6.4 | 0.03 | 0.03 | 0.03 | 87 | 886.5 |
| 20260505091515 | 13 | 251 | 1.6 | 6.4 | 0.00 | 0.00 | 0.00 | 86 | 886.5 |
| 20260505091012 | 13 | 276 | 1.6 | 6.4 | 0.00 | 0.00 | 0.00 | 86 | 886.6 |
| 20260505090512 | 13 | 304 | 0.0 | 6.4 | 0.00 | 0.00 | 0.00 | 86 | 886.6 |
| 20260505090010 | 13 | 250 | 1.6 | 6.4 | 0.00 | 0.00 | 0.00 | 85 | 886.8 |
| 20260505085511 | 13 | 283 | 3.2 | 8.0 | 0.00 | 0.00 | 0.00 | 85 | 886.8 |
| 20260505085006 | 13 | 340 | 3.2 | 11.3 | 0.00 | 0.00 | 0.00 | 84 | 886.9 |
| 20260505084506 | 14 | 242 | 3.2 | 12.9 | 0.00 | 0.00 | 0.00 | 82 | 887.0 |
| 20260505084004 | 14 | 240 | 3.2 | 17.7 | 0.00 | 0.00 | 0.00 | 80 | 887.1 |
| 20260505083507 | 14 | 259 | 4.8 | 17.7 | 0.00 | 0.00 | 0.00 | 79 | 887.1 |
| 20260505082505 | 15 | 294 | 3.2 | 12.9 | 0.00 | 0.00 | 0.00 | 74 | 886.8 |
| 20260505081959 | 15 | 307 | 3.2 | 12.9 | 0.00 | 0.00 | 0.00 | 72 | 886.7 |
| 20260505081454 | 15 | 307 | 3.2 | 12.9 | 0.00 | 0.00 | 0.00 | 69 | 886.8 |
| 20260505080948 | 15 | 283 | 3.2 | 11.3 | 0.00 | 0.00 | 0.00 | 68 | 887.0 |
| 20260505075430 | 16 | 233 | 3.2 | 14.5 | 0.00 | 0.00 | 0.00 | 65 | 886.9 |
| 20260505074924 | 16 | 264 | 4.8 | 16.1 | 0.00 | 0.00 | 0.00 | 64 | 886.9 |
| 20260505074420 | 16 | 231 | 4.8 | 16.1 | 0.00 | 0.00 | 0.00 | 64 | 886.9 |
| 20260505073920 | 16 | 247 | 4.8 | 19.3 | 0.00 | 0.00 | 0.00 | 63 | 886.8 |
| 20260505073419 | 16 | 281 | 4.8 | 19.3 | 0.00 | 0.00 | 0.00 | 63 | 886.8 |
| 20260505072918 | 16 | 288 | 4.8 | 12.9 | 0.00 | 0.00 | 0.00 | 63 | 886.8 |
| 20260505071918 | 16 | 286 | 3.2 | 14.5 | 0.00 | 0.00 | 0.00 | 62 | 886.9 |
| 20260505071421 | 16 | 257 | 3.2 | 12.9 | 0.00 | 0.00 | 0.00 | 62 | 886.8 |
| 20260505070916 | 16 | 291 | 3.2 | 14.5 | 0.00 | 0.00 | 0.00 | 61 | 886.9 |
| 20260505070419 | 16 | 269 | 3.2 | 19.3 | 0.00 | 0.00 | 0.00 | 61 | 886.9 |
| 20260505065916 | 16 | 245 | 3.2 | 19.3 | 0.00 | 0.00 | 0.00 | 60 | 887.0 |
| 20260505064416 | 16 | 236 | 3.2 | 11.3 | 0.00 | 0.00 | 0.00 | 58 | 886.9 |
| 20260505063916 | 16 | 278 | 3.2 | 11.3 | 0.00 | 0.00 | 0.00 | 56 | 886.9 |
| 20260505063415 | 16 | 254 | 1.6 | 9.7 | 0.00 | 0.00 | 0.00 | 55 | 886.9 |
| 20260505062416 | 16 | 271 | 1.6 | 8.0 | 0.00 | 0.00 | 0.00 | 53 | 887.0 |
| 20260505061909 | 17 | 267 | 1.6 | 16.1 | 0.00 | 0.00 | 0.00 | 53 | 887.1 |
| 20260505061403 | 17 | 253 | 1.6 | 16.1 | 0.00 | 0.00 | 0.00 | 53 | 887.2 |
| 20260505060857 | 17 | 265 | 1.6 | 9.7 | 0.00 | 0.00 | 0.00 | 53 | 887.1 |
| 20260505060351 | 17 | 231 | 3.2 | 12.9 | 0.00 | 0.00 | 0.00 | 54 | 886.9 |
| 20260505055846 | 17 | 262 | 4.8 | 16.1 | 0.00 | 0.00 | 0.00 | 54 | 886.9 |
| 20260505055340 | 17 | 276 | 4.8 | 16.1 | 0.00 | 0.00 | 0.00 | 52 | 886.8 |
| 20260505054833 | 17 | 246 | 3.2 | 12.9 | 0.00 | 0.00 | 0.00 | 51 | 886.7 |
| 20260505054327 | 17 | 277 | 1.6 | 12.9 | 0.00 | 0.00 | 0.00 | 50 | 886.6 |
| 20260505053821 | 17 | 219 | 1.6 | 8.0 | 0.00 | 0.00 | 0.00 | 48 | 886.7 |
| 20260505052809 | 17 | 242 | 0.0 | 4.8 | 0.00 | 0.00 | 0.00 | 47 | 886.9 |
| 20260505052304 | 17 | 270 | 0.0 | 3.2 | 0.00 | 0.00 | 0.00 | 46 | 887.1 |
| 20260505051758 | 16 | 257 | 0.0 | 3.2 | 0.00 | 0.00 | 0.00 | 46 | 887.2 |
| 20260505051252 | 16 | 264 | 0.0 | 3.2 | 0.00 | 0.00 | 0.00 | 46 | 887.1 |
| 20260505050745 | 17 | 271 | 0.0 | 3.2 | 0.00 | 0.00 | 0.00 | 46 | 887.0 |
| 20260505050240 | 17 | 278 | 0.0 | 4.8 | 0.00 | 0.00 | 0.00 | 45 | 887.0 |
| 20260505041652 | 17 | 285 | 4.8 | 16.1 | 0.00 | 0.00 | 0.00 | 44 | 886.3 |
| 20260505041151 | 17 | 248 | 4.8 | 19.3 | 0.00 | 0.00 | 0.00 | 43 | 886.4 |
| 20260505040654 | 17 | 251 | 6.4 | 19.3 | 0.00 | 0.00 | 0.00 | 43 | 886.4 |
| 20260505040152 | 17 | 251 | 4.8 | 16.1 | 0.00 | 0.00 | 0.00 | 42 | 886.4 |
| 20260505035650 | 17 | 231 | 4.8 | 22.5 | 0.00 | 0.00 | 0.00 | 42 | 886.5 |
| 20260505034653 | 17 | 302 | 4.8 | 17.7 | 0.00 | 0.00 | 0.00 | 41 | 886.3 |
| 20260505034152 | 17 | 320 | 4.8 | 17.7 | 0.00 | 0.00 | 0.00 | 41 | 886.4 |
| 20260505033649 | 17 | 259 | 4.8 | 16.1 | 0.00 | 0.00 | 0.00 | 41 | 886.4 |
| 20260505033149 | 17 | 316 | 4.8 | 19.3 | 0.00 | 0.00 | 0.00 | 41 | 886.3 |
| 20260505032648 | 17 | 240 | 3.2 | 19.3 | 0.00 | 0.00 | 0.00 | 41 | 886.3 |
| 20260505032150 | 17 | 224 | 3.2 | 16.1 | 0.00 | 0.00 | 0.00 | 41 | 886.2 |
| 20260505031648 | 17 | 148 | 4.8 | 17.7 | 0.00 | 0.00 | 0.00 | 40 | 886.1 |
| 20260505031146 | 17 | 250 | 4.8 | 20.9 | 0.00 | 0.00 | 0.00 | 40 | 886.2 |
| 20260505030647 | 17 | 318 | 4.8 | 20.9 | 0.00 | 0.00 | 0.00 | 39 | 886.1 |
| 20260505030145 | 18 | 231 | 4.8 | 22.5 | 0.00 | 0.00 | 0.00 | 38 | 886.1 |
| 20260505025143 | 18 | 277 | 4.8 | 19.3 | 0.00 | 0.00 | 0.00 | 38 | 886.0 |
| 20260505024643 | 18 | 216 | 4.8 | 19.3 | 0.00 | 0.00 | 0.00 | 38 | 886.0 |
| 20260505024142 | 18 | 309 | 4.8 | 16.1 | 0.00 | 0.00 | 0.00 | 38 | 886.0 |
| 20260505023142 | 18 | 173 | 4.8 | 19.3 | 0.00 | 0.00 | 0.00 | 38 | 886.0 |
| 20260505022639 | 18 | 228 | 4.8 | 19.3 | 0.00 | 0.00 | 0.00 | 37 | 886.0 |
| 20260505022141 | 18 | 257 | 6.4 | 20.9 | 0.00 | 0.00 | 0.00 | 37 | 885.7 |
| 20260505021639 | 19 | 280 | 6.4 | 24.1 | 0.00 | 0.00 | 0.00 | 37 | 885.6 |
| 20260505020636 | 19 | 265 | 4.8 | 17.7 | 0.00 | 0.00 | 0.00 | 36 | 885.6 |
| 20260505020137 | 20 | 317 | 4.8 | 20.9 | 0.00 | 0.00 | 0.00 | 36 | 885.7 |
| 20260505015636 | 20 | 333 | 4.8 | 24.1 | 0.00 | 0.00 | 0.00 | 35 | 885.9 |
| 20260505015137 | 20 | 296 | 4.8 | 24.1 | 0.00 | 0.00 | 0.00 | 34 | 885.8 |
| 20260505014633 | 20 | 228 | 4.8 | 17.7 | 0.00 | 0.00 | 0.00 | 33 | 885.7 |
| 20260505013133 | 21 | 200 | 4.8 | 16.1 | 0.00 | 0.00 | 0.00 | 31 | 885.5 |
| 20260505012633 | 21 | 252 | 3.2 | 12.9 | 0.00 | 0.00 | 0.00 | 29 | 885.3 |
| 20260505011632 | 22 | 267 | 1.6 | 14.5 | 0.00 | 0.00 | 0.00 | 28 | 885.4 |
| 20260505011132 | 22 | 259 | 1.6 | 14.5 | 0.00 | 0.00 | 0.00 | 27 | 885.3 |
| 20260505010634 | 22 | 293 | 3.2 | 12.9 | 0.00 | 0.00 | 0.00 | 26 | 885.5 |
| 20260505010127 | 22 | 269 | 1.6 | 9.7 | 0.00 | 0.00 | 0.00 | 26 | 885.5 |
| 20260505005628 | 22 | 300 | 3.2 | 12.9 | 0.00 | 0.00 | 0.00 | 26 | 885.4 |
| 20260505005129 | 22 | 307 | 3.2 | 12.9 | 0.00 | 0.00 | 0.00 | 26 | 885.6 |
| 20260505004627 | 23 | 229 | 3.2 | 11.3 | 0.00 | 0.00 | 0.00 | 25 | 885.5 |
| 20260505004126 | 23 | 322 | 3.2 | 14.5 | 0.00 | 0.00 | 0.00 | 24 | 885.6 |
| 20260505003124 | 23 | 300 | 3.2 | 16.1 | 0.00 | 0.00 | 0.00 | 23 | 885.7 |
| 20260505002625 | 23 | 291 | 3.2 | 16.1 | 0.00 | 0.00 | 0.00 | 23 | 885.6 |
| 20260505001623 | 23 | 301 | 6.4 | 14.5 | 0.00 | 0.00 | 0.00 | 22 | 885.4 |
| 20260505000626 | 24 | 306 | 6.4 | 17.7 | 0.00 | 0.00 | 0.00 | 22 | 885.4 |
| 20260505000119 | 24 | 295 | 6.4 | 19.3 | 0.00 | 0.00 | 0.00 | 22 | 885.3 |
| 20260504235615 | 25 | 298 | 6.4 | 22.5 | 0.00 | 0.00 | 0.00 | 21 | 885.2 |
| 20260504235108 | 25 | 290 | 6.4 | 22.5 | 0.00 | 0.00 | 0.00 | 21 | 885.2 |
| 20260504234603 | 25 | 288 | 4.8 | 19.3 | 0.00 | 0.00 | 0.00 | 20 | 885.1 |
| 20260504234056 | 25 | 262 | 4.8 | 12.9 | 0.00 | 0.00 | 0.00 | 22 | 885.1 |
| 20260504233550 | 25 | 293 | 4.8 | 12.9 | 0.00 | 0.00 | 0.00 | 22 | 885.1 |
| 20260504232537 | 25 | 259 | 4.8 | 17.7 | 0.00 | 0.00 | 0.00 | 24 | 885.2 |
| 20260504232033 | 25 | 353 | 4.8 | 17.7 | 0.00 | 0.00 | 0.00 | 23 | 885.2 |
| 20260504231528 | 25 | 246 | 4.8 | 24.1 | 0.00 | 0.00 | 0.00 | 23 | 885.2 |
| 20260504230526 | 25 | 325 | 8.0 | 24.1 | 0.00 | 0.00 | 0.00 | 24 | 885.2 |
| 20260504230023 | 25 | 340 | 8.0 | 24.1 | 0.00 | 0.00 | 0.00 | 24 | 885.1 |
| 20260504225523 | 25 | 310 | 6.4 | 24.1 | 0.00 | 0.00 | 0.00 | 24 | 885.3 |
| 20260504225023 | 25 | 11 | 8.0 | 24.1 | 0.00 | 0.00 | 0.00 | 25 | 885.1 |